Probability
2 10 27 43 48 43 37 34 34 36 38 39 42 45 43 37 34 34 31 25 20 16 13 11 9 9 9 7 5 3 1 0 0 0 0 0 0 0 0 0 0 0 0
2 11 26 41 48 46 39 35 35 38 41 41 41 44 43 39 38 39 35 29 24 19 14 11 10 10 10 8 6 3 2 0 0 0 0 0 0 0 0 0 0 0 0
4 11 24 37 46 47 42 36 36 40 44 44 43 43 43 40 41 43 40 35 30 25 19 16 14 13 11 8 6 3 1 0 0 0 0 0 0 0 0 0 0 0 0
4 10 21 35 42 44 43 38 36 39 43 45 44 43 41 40 40 42 40 36 32 28 25 23 21 17 12 8 5 2 0 0 0 0 0 0 0 0 0 0 0 0 0
4 8 19 32 38 40 42 39 35 37 40 41 41 40 39 39 38 38 36 34 32 30 29 28 25 19 12 7 4 1 0 0 0 0 0 0 0 0 0 0 0 0 0
6 9 18 29 34 35 40 39 34 35 37 37 35 34 35 36 36 34 33 32 30 30 30 28 23 17 10 5 3 1 0 0 0 0 0 0 0 0 0 0 0 0 0
9 11 18 27 31 31 35 37 34 33 35 34 30 28 28 31 32 32 33 31 28 28 29 26 20 13 8 5 3 1 0 0 0 0 0 0 0 0 0 0 0 0 0
9 11 17 24 28 27 30 34 33 31 32 31 28 25 24 25 27 29 32 31 28 28 28 24 18 11 7 5 3 1 0 0 0 0 0 0 0 0 0 0 0 0 0
8 11 16 21 24 24 26 31 32 30 30 30 27 22 19 19 21 25 29 29 27 27 29 26 19 12 8 6 4 1 0 0 0 0 0 0 0 0 0 0 0 0 0
8 11 14 17 19 19 21 25 27 28 28 28 24 18 14 13 14 17 22 24 23 24 27 28 22 14 8 6 4 1 0 0 0 0 0 0 0 0 0 0 0 0 0
8 11 14 14 13 14 15 16 20 23 23 21 16 11 9 8 7 9 12 16 19 21 25 27 23 15 8 3 2 0 0 0 0 0 0 0 0 0 0 0 0 0 0
6 9 12 11 10 11 11 11 14 17 17 14 10 7 6 5 4 4 5 9 13 17 21 23 20 13 6 1 0 0 0 0 0 0 0 0 0 0 0 0 0 0 0
4 6 9 9 10 9 8 8 10 13 13 11 7 6 4 4 3 2 2 5 8 12 17 18 14 8 4 1 0 0 0 0 0 0 0 0 0 0 0 0 0 0 0
4 5 6 7 9 8 6 5 7 10 11 8 6 4 3 3 3 1 1 2 5 9 13 12 9 5 3 1 0 0 0 0 0 0 0 0 0 0 0 0 0 0 0
4 4 4 5 6 6 4 4 5 7 8 7 4 3 3 3 2 1 0 1 4 7 9 8 6 4 2 1 0 0 0 0 0 0 0 0 0 0 0 0 0 0 0
3 3 3 4 4 4 3 3 4 5 7 6 4 3 3 3 2 1 0 1 2 5 6 6 4 3 2 1 0 0 0 0 0 0 0 0 0 0 0 0 0 0 0
3 3 3 3 3 3 3 3 3 4 6 5 4 3 3 3 1 0 0 0 1 4 6 4 3 2 1 0 0 0 0 0 0 0 0 0 0 0 0 0 0 0 0
3 3 3 2 2 4 4 3 2 4 5 4 3 3 3 2 1 0 0 0 1 3 4 3 1 1 0 0 0 0 0 0 0 0 0 0 0 0 0 0 0 0 0
3 3 3 1 1 4 5 3 3 4 4 3 3 3 3 2 1 0 0 0 0 1 2 2 1 0 0 0 0 0 0 0 0 0 0 0 0 0 0 0 0 0 0
3 3 2 1 0 3 5 4 4 4 3 3 3 3 3 2 1 0 0 0 0 0 1 1 1 0 0 0 0 0 0 0 0 0 0 0 0 0 0 0 0 0 0
3 2 1 0 0 2 4 4 3 3 3 3 1 1 2 1 0 0 0 0 0 0 0 0 0 0 0 0 0 0 0 0 0 0 0 0 0 0 0 0 0 0 0
1 0 0 0 0 2 3 3 3 3 3 2 1 0 0 0 0 0 0 0 0 0 0 0 0 0 0 0 0 0 0 0 0 0 0 0 0 0 0 0 0 0 0
0 0 0 0 0 1 1 2 3 3 3 2 1 0 0 0 0 0 0 0 0 1 1 1 0 0 0 0 0 0 0 0 0 0 0 0 0 0 0 0 0 0 0
0 0 0 0 0 0 1 2 3 2 1 1 2 1 0 0 0 0 0 0 0 1 2 1 0 1 0 0 0 0 0 0 0 0 0 0 0 0 0 0 0 0 0
0 1 1 1 0 0 0 1 1 1 1 1 2 2 1 0 0 0 0 0 0 1 1 1 0 0 0 0 0 0 0 0 0 0 0 0 0 0 0 0 0 0 0
0 1 2 2 1 0 0 0 0 1 0 1 2 2 1 0 0 0 0 0 0 0 1 0 0 0 0 0 0 0 0 0 0 0 0 0 0 0 0 0 0 0 0
Wind_Speed
4 3 6 9 11 13 13 14 14 14 13 13 14 15 16 16 16 16 15 15 15 14 14 15 15 15 15 15 15 15 14 14 14 13 13 13 13 13 12 12 11 8 14
3 2 4 7 10 11 13 13 13 13 13 13 14 14 15 16 16 16 16 15 15 15 15 15 15 15 15 15 15 14 14 14 13 13 12 11 11 12 12 12 12 8 14
3 2 1 4 7 10 11 12 13 13 13 13 13 14 15 15 16 16 16 15 15 15 15 14 15 15 15 15 14 14 14 13 13 12 10 5 6 12 12 12 12 13 14
3 2 2 0 3 8 10 11 12 13 13 13 14 14 14 15 15 15 16 15 15 14 14 14 14 14 14 15 14 14 13 13 12 11 5 3 4 11 12 12 13 14 14
3 3 3 1 1 4 8 9 11 12 13 13 14 14 14 15 15 15 15 15 15 14 14 14 14 14 14 14 14 14 13 13 12 8 4 3 3 10 11 12 13 13 13
3 3 3 2 1 2 5 7 8 10 12 13 13 13 14 15 14 14 14 14 14 14 14 15 14 14 14 14 14 14 13 13 9 4 4 3 3 8 11 12 12 12 12
3 3 4 4 1 1 3 6 7 8 9 11 12 13 14 14 14 14 13 14 14 15 15 15 15 14 14 14 14 14 14 13 6 4 3 3 3 10 12 12 11 11 11
3 3 3 4 4 2 1 4 6 6 7 8 10 12 13 13 14 14 14 14 14 15 16 16 15 15 14 14 14 14 14 11 7 4 3 2 6 10 11 11 10 11 10
3 3 3 2 2 1 1 2 4 5 6 7 8 9 10 11 12 14 14 14 14 15 16 16 16 15 15 14 14 14 13 11 5 3 3 2 7 9 10 10 9 9 9
3 3 3 3 2 1 1 1 2 4 5 5 6 6 7 9 11 12 12 13 14 15 15 16 16 15 14 14 14 14 12 9 4 3 1 3 7 9 9 9 9 9 8
4 3 2 3 2 1 1 1 2 4 4 4 5 5 5 4 5 7 9 11 13 14 15 16 16 14 13 12 14 13 10 3 4 2 1 4 8 8 9 8 8 8 7
5 4 2 2 2 1 1 1 1 2 3 3 3 3 2 2 3 4 8 10 12 12 14 15 15 13 9 5 8 10 4 4 3 2 2 6 7 7 9 8 7 7 6
5 5 3 3 2 1 1 1 1 1 2 2 3 3 3 2 2 3 3 5 6 7 6 8 8 5 5 4 4 4 4 4 2 2 2 5 7 7 8 8 7 6 6
6 5 4 4 3 2 2 1 2 2 2 2 3 4 4 2 2 3 2 3 3 3 4 4 4 6 6 6 6 6 5 3 3 2 2 5 6 7 8 8 7 6 6
6 6 5 5 4 3 2 2 2 3 3 4 4 4 5 4 3 3 3 3 3 4 5 5 5 6 7 6 6 6 6 5 4 3 2 4 5 6 7 8 7 7 5
7 6 5 5 5 4 3 3 3 3 3 4 4 5 5 5 5 4 4 3 3 4 5 5 6 6 6 6 6 6 6 5 4 4 2 2 4 5 7 8 7 6 5
8 6 6 5 5 4 4 4 3 3 4 4 4 5 6 5 6 5 4 4 4 4 5 5 5 5 5 5 6 6 5 5 4 4 3 2 2 3 5 7 7 6 6
7 6 6 5 4 5 4 4 3 3 4 4 4 5 6 6 7 5 5 4 4 4 4 5 5 5 5 5 5 5 4 4 5 4 3 3 2 2 3 5 6 6 6
6 5 5 4 5 6 5 4 4 3 4 4 4 5 6 7 7 6 5 5 5 5 5 5 4 5 6 6 5 4 4 4 4 4 4 4 3 3 2 3 4 4 5
5 5 5 5 5 5 5 3 3 3 3 4 4 5 7 6 8 6 5 6 6 5 5 5 6 4 5 6 5 4 3 3 3 4 5 4 3 4 3 2 2 2 4
4 5 5 5 5 4 4 4 4 4 4 4 5 6 8 7 8 7 6 6 6 6 7 7 6 6 4 5 4 3 1 1 3 3 3 3 4 4 4 3 2 2 2
5 5 5 6 5 4 5 5 4 4 4 5 5 6 7 8 8 8 8 7 7 6 7 7 6 5 4 5 5 5 2 1 2 3 3 4 4 3 4 4 3 3 2
5 5 5 6 5 5 5 4 3 2 2 3 4 5 7 8 9 9 9 8 8 8 8 8 9 8 6 5 5 6 6 5 2 2 3 4 4 3 3 3 4 4 3
6 5 6 7 6 5 5 5 6 5 5 5 5 6 6 8 9 9 9 9 8 7 9 9 9 7 8 7 5 3 3 5 5 3 2 3 4 4 4 3 4 4 3
5 5 6 6 5 5 6 7 7 6 6 4 5 6 7 7 9 9 9 8 8 8 9 10 9 9 7 7 6 4 3 2 3 4 4 3 2 3 4 4 3 3 4
5 5 5 5 5 4 6 7 8 8 6 6 7 7 6 6 6 8 8 8 8 8 9 10 10 11 9 8 6 6 6 5 5 4 4 5 4 3 3 3 4 4 4
Wind_Direction
310 275 217 186 173 168 167 164 159 156 153 151 149 147 147 146 145 144 144 142 141 139 138 136 135 132 126 122 119 114 111 108 105 101 101 102 101 100 96 93 90 82 88
292 274 215 191 179 174 172 169 163 158 156 155 154 152 150 149 148 147 147 145 144 142 139 137 134 131 126 121 117 114 111 109 106 102 99 100 104 105 102 100 96 93 90
353 345 221 194 187 182 178 174 167 163 162 161 160 158 155 154 153 152 151 150 147 144 140 137 134 131 128 125 121 118 115 113 108 103 98 86 102 109 105 100 97 94 93
0 3 349 157 184 188 185 179 173 170 168 168 166 164 162 159 158 157 156 154 151 146 142 139 135 133 131 128 126 123 120 116 111 104 83 79 94 109 106 101 99 94 92
9 0 346 14 118 178 185 182 178 175 174 173 173 171 169 166 164 163 161 158 154 149 144 141 138 137 135 133 132 128 124 120 113 98 81 78 89 111 108 103 100 96 93
5 358 348 9 172 153 175 175 176 178 179 179 177 176 175 173 170 167 165 161 157 153 149 146 145 142 140 138 136 132 128 122 107 92 85 83 95 117 113 107 102 98 95
347 351 354 11 20 185 187 181 172 174 181 183 181 181 180 176 173 170 167 165 162 159 156 153 152 146 144 144 141 137 133 127 112 102 95 91 110 119 115 110 105 102 98
335 337 342 355 6 358 221 181 175 178 181 185 187 187 182 177 176 173 170 170 168 164 160 158 157 152 150 148 145 142 138 130 119 112 107 107 123 121 117 113 110 106 102
336 339 330 323 331 327 307 202 175 174 182 183 185 188 185 178 177 178 174 174 174 170 164 162 160 158 156 153 150 147 141 135 124 124 124 130 132 129 123 120 116 111 106
321 328 322 321 318 274 213 242 187 176 178 184 184 181 179 183 183 180 179 177 176 174 170 166 164 162 160 156 153 150 144 132 124 124 125 151 145 138 130 127 120 115 110
298 297 308 316 311 310 241 241 204 180 177 177 177 171 173 178 183 182 183 182 179 176 175 171 167 163 159 157 154 150 141 129 134 132 148 159 149 144 140 134 128 122 116
285 285 274 274 295 296 272 208 230 196 178 174 172 165 160 162 172 175 181 184 183 179 177 176 169 160 145 144 150 144 135 137 137 147 185 170 160 153 146 141 137 131 125
265 273 275 254 247 253 259 221 231 221 173 169 167 161 153 150 161 163 172 181 183 177 174 172 164 150 142 143 143 144 145 145 147 161 195 179 173 167 158 153 151 146 138
263 266 274 250 233 236 227 221 216 198 183 175 179 171 160 158 165 169 169 174 175 171 164 156 158 152 149 150 152 153 155 156 159 167 204 187 181 179 173 165 162 157 148
265 262 272 264 230 223 222 207 237 204 192 184 179 181 176 171 175 176 177 175 178 171 166 165 161 160 158 158 160 161 165 166 167 169 194 197 188 191 185 174 169 167 161
269 260 253 272 240 216 220 207 214 210 189 184 185 188 188 182 178 181 182 180 185 179 174 172 169 167 167 164 164 166 171 170 172 173 179 205 200 198 199 187 179 177 177
260 258 248 259 257 229 225 221 210 206 192 192 193 191 192 191 184 181 184 187 186 179 172 169 163 163 165 164 165 168 172 175 173 177 178 184 205 213 208 198 192 191 190
254 253 250 260 269 243 230 232 210 200 198 194 197 194 198 198 193 184 185 193 185 177 177 172 169 169 171 170 167 172 174 175 179 182 179 182 186 202 214 204 203 201 199
250 250 252 253 259 241 227 224 213 197 205 197 201 200 201 203 199 191 189 192 183 180 185 181 175 177 175 174 170 169 175 178 182 181 185 190 189 186 193 206 205 207 213
255 252 250 249 252 240 215 206 209 197 206 201 203 209 204 205 202 196 193 190 186 184 189 186 174 183 177 169 163 158 172 182 181 188 193 191 191 189 185 184 193 215 219
257 253 251 249 253 241 203 191 207 204 209 212 213 211 209 207 204 198 196 190 190 192 191 185 172 174 176 162 140 133 98 181 193 200 193 190 196 193 180 180 182 181 219
265 260 254 247 245 241 218 201 208 208 210 215 213 214 211 210 207 203 198 195 195 193 189 188 175 169 175 173 153 143 148 238 233 204 192 196 199 187 187 186 181 182 185
268 259 261 258 254 244 223 205 212 208 217 214 216 219 213 214 212 209 204 200 200 196 194 190 185 177 178 189 177 160 163 196 188 209 201 195 191 188 194 188 190 188 184
267 263 259 258 253 246 219 202 202 210 225 229 223 224 219 217 214 210 205 202 202 203 197 193 191 187 177 183 191 194 174 156 157 175 208 196 192 196 196 194 196 194 186
272 269 267 265 260 250 225 212 207 216 224 227 228 225 223 221 216 211 206 205 206 206 200 195 192 190 189 187 183 171 165 157 147 154 191 196 200 205 197 195 194 196 191
297 283 275 267 265 253 235 221 213 218 222 224 229 228 226 222 217 213 210 207 210 207 200 197 198 195 195 193 191 184 174 169 177 163 178 192 203 206 192 191 195 199 195